Погода в Знаменке

Украина / Одесская область     47°00′51″N   30°17′24″E
темп.,
°C
ветер,
м/с
пор.,
м/с
влажн.,
%
обл.,
%
осадки,
мм/ч
давл.,
гПа
погр.,
м
2 марта, вт
вт223:00+2с4781100 0.1 1033527
02:00+1ссз3580100 0.1 1033278
05:00−1сз238586 0.0 103238
08:00+1з248172 0.0 1032178
11:00+6зсз466111 0.0 1030919
14:00+8з68597 0.0 1028827
17:00+8зсз6116164 0.0 1025790
20:00+5зсз6137442 0.0 1024441
3 марта, ср
ср323:00+4сз6147615 0.0 1025554
02:00+4с5108134 0.0 1027846
05:00+4ссз5973100 0.0 1027811
08:00+4сз597278 0.0 1029572
11:00+7ссз56590 0.0 1030965
14:00+9ссз45430 0.0 10291262
17:00+8сз355185 0.0 1028590
20:00+5зсз226087 0.0 102822
4 марта, чт
чт423:00+3зюз12631 0.0 102722
02:00+3ююз34671 0.0 102648
05:00+2ююз34770 0.0 102374
08:00+4ююз59820 0.0 1022282
11:00+9юз610610 0.0 1019610
14:00+13юз79514 0.0 1016929
17:00+12зюз485652 0.0 1014284
20:00+8зюз346526 0.0 101439
5 марта, пт
пт523:00+7юз11640 0.0 101322
02:00+6ююз227217 0.0 101322
05:00+5ююв2274100 0.0 101222
08:00+6ю237799 0.0 101272
11:00+11юз3452100 0.0 1011438
14:00+15сз443851 0.0 10101073
17:00+13с46516 0.0 1010268
20:00+8ссв597445 0.0 1011298
6 марта, сб
сб623:00+6ссв4788100 0.0 1013372
02:00+5с5890100 0.2 1015445
05:00+1с81295100 0.5 1016563
08:00+2ссв71166100 0.8 1020895
11:00+3с81046100 0.0 10211323
14:00+3с7945100 0.0 10221504
17:00+3с693872 0.0 10241908
20:000ссз355136 0.0 102692